STARLINK-37969, 69710

Orbit data source: Space-Track

STARLINK-37969, 69710 is a payload satellite owned by SpaceX/Seattle (US) in SSO that was launched on Sun, 28 Jun 2026 UTC via an FALCON 9 launch vehicle from the Air Force Western Test Range (AFWTR). Payload-class satellites include a variety of spacecraft equipped with specific instruments for various scientific and technological missions. These include communications satellites like Starlink; space stations such as the ISS; scientific satellites like the Hubble; Earth observation satellites from companies like Planet Labs, Umbra, and HawkEye 360; GPS; miniature CubeSats for education and research; and military/defense satellites.

Loading next visibility...
Identifier
69710, 2026-147G
Orbit
SSO
Country
Flag of USUS
Related business
Manufacturer
SpaceX/Seattle
Mission
Operational Commercial Communications
Bus & Motor
STARLINK V2MO, Unknown motor
Mass
575 kg wet, ~530 kg dry
Launch date (UTC)
2026-06-28 (2 months ago)
Launch vehicle
FALCON 9
Launch site
Air Force Western Test Range (AFWTR)
Object type
Payload
Rocket body
Debris
Shape & HBR
Box + 1 Pan, 17.7 m
Radar Cross Section
41.120 m², Large (>1 m²)

Expand to show TLE details & history
Last TLE update: 1 day ago

TLE from 1 day ago
0 STARLINK-37969
1 69710U 26147G   26236.04217113  .00016429  00000-0  50991-3 0  9990
2 69710  97.2846 272.7621 0001568 109.1018 251.0395 15.33455954 10020
Epoch: 2026-08-24T01:00Z
TLE epoch observation values (Epoch: 2026-08-24T01:00:43.585Z)
Latitude
Longitude
-74.74906°
Altitude
468.972 km
Speed
7.632 km/s
True Right ascension
18h 11m 02s
True Declination
0° 00' 00"
Sunlit
Object was in full shadow at epoch
Visualization orbit readout
Latitude
Unknown
Longitude
Unknown
Altitude
Unknown
Speed
Unknown
Apparent Right ascension
Unknown
Apparent Declination
Unknown
Sunlit
N/A
Visualization observer readout
Local Sidereal Time
00:12:13
Azimuth
Unknown
Elevation
Unknown
Doppler factor
Unknown
Orbital elements
Apogee altitude
463.526 km
Perigee altitude
461.381 km
Semi-major axis
6,840.59 km
Eccentricity
0.00016
Inclination
97.2846°
RAAN
272.7621°
Arg. of periapsis
109.1018°
True anomaly
251.02251°
Mean anomaly
251.0395°
Eccentric anomaly
251.031°
Mean motion
3.83621 °/min
Orbital period
93.84 mins
BSTAR
0.00050991
Loading maneuver chart data...
Computing Atmospheric mass density...
Loading historical data...
Loading historical data...
Loading historical data...
Loading historical data...
Loading historical data...
Loading historical data...
Loading historical data...

Documentation

Showing up to 5 results
|